User: anonymous   Login
Location: Unspecified
(0.0000°N, 0.0000°E)
Time: 01:20:06
(UTC+02:00)
Language:

CZ-4 DEB - Orbit

View from above orbital plane
View from above orbital plane
View from above satellite
View from above satellite

Ground track
Ground track

The orbit data is extracted from the following two-line orbital elements,

1 29508U 06046D   15115.53846293  .00032475  00000-0  12451-2 0  9999
2 29508 097.6917 132.7256 0002203 298.0094 179.0212 15.26437864464697
Epoch (UTC): 25 April 2015 12:55:23
Eccentricity: 0.0002203
inclination: 97.6917°
perigee height: 485 km
apogee height: 488 km
right ascension of ascending node: 132.7256°
argument of perigee: 298.0094°
revolutions per day: 15.26437864
mean anomaly at epoch: 179.0212°
orbit number at epoch: 46469

The dashed part of the orbit path shows where the satellite is in the earth's shadow,  

DLR